GW1585 Weather Reports


time (UTC)temp
C
wind
direction
speed
KPH
gust
KPH
rain 1hr
cm
rain 24hr
cm
rain mn
cm
humidity
%
barometer
mb
20260506233059 9 257 0.0 3.2 0.00 0.00 0.00 79 1015.5
20260506231556 9 0 0.0 3.2 0.00 0.00 0.00 78 1015.6
20260506230103 9 39 0.0 4.8 0.00 0.00 0.00 78 1015.6
20260506224556 9 0 0.0 3.2 0.00 0.00 0.00 79 1015.4
20260506223100 9 0 0.0 4.8 0.00 0.00 0.00 78 1015.2
20260506221603 9 0 0.0 3.2 0.00 0.00 0.00 78 1015.2
20260506220056 9 204 0.0 3.2 0.00 0.00 0.00 78 1015.1
20260506214600 9 232 0.0 6.4 0.00 0.00 0.00 77 1015.0
20260506213059 9 301 0.0 4.8 0.00 0.00 0.00 78 1014.9
20260506211556 10 0 1.6 6.4 0.00 0.00 0.00 78 1014.9
20260506210058 10 0 0.0 4.8 0.00 0.00 0.00 78 1015.0
20260506204556 10 257 0.0 6.4 0.00 0.00 0.00 78 1015.0
20260506203058 10 302 1.6 6.4 0.00 0.00 0.00 78 1015.0
20260506201555 10 233 0.0 6.4 0.00 0.00 0.00 79 1015.0
20260506200055 10 319 0.0 8.0 0.00 0.00 0.00 79 1014.8
20260506194556 10 82 0.0 1.6 0.00 0.00 0.00 79 1014.6
20260506193059 10 0 1.6 8.0 0.00 0.00 0.00 79 1014.5
20260506191604 10 258 1.6 6.4 0.00 0.00 0.00 79 1014.3
20260506190055 10 61 0.0 4.8 0.00 0.00 0.00 79 1014.1
20260506184558 10 0 0.0 3.2 0.00 0.00 0.00 79 1014.0
20260506183106 10 269 0.0 3.2 0.00 0.00 0.00 78 1013.9
20260506181604 10 310 0.0 3.2 0.00 0.00 0.00 78 1013.7
20260506180059 11 0 0.0 4.8 0.00 0.00 0.00 78 1013.7
20260506174600 11 0 0.0 8.0 0.00 0.00 0.00 77 1013.6
20260506173123 11 313 1.6 4.8 0.00 0.00 0.00 77 1013.4
20260506171610 11 323 1.6 6.4 0.00 0.00 0.00 78 1013.3
20260506170112 11 325 1.6 6.4 0.00 0.00 0.00 77 1013.4
20260506164559 11 201 1.6 6.4 0.00 0.00 0.00 76 1013.4
20260506163059 11 0 1.6 6.4 0.00 0.00 0.00 76 1013.4
20260506161559 11 265 1.6 6.4 0.00 0.00 0.00 75 1013.4
20260506160055 11 143 0.0 8.0 0.00 0.00 0.00 75 1013.4
20260506154612 11 279 0.0 9.7 0.00 0.00 0.00 75 1013.5
20260506153056 11 262 1.6 6.4 0.00 0.00 0.00 74 1013.5
20260506151558 12 12 1.6 8.0 0.00 0.00 0.00 73 1013.3
20260506150057 12 264 3.2 8.0 0.00 0.00 0.00 73 1013.3
20260506144606 12 1 1.6 6.4 0.00 0.00 0.00 73 1013.3
20260506143055 12 131 1.6 6.4 0.00 0.00 0.00 72 1013.4
20260506141601 12 326 1.6 9.7 0.00 0.00 0.00 71 1013.3
20260506140058 13 360 1.6 9.7 0.00 0.00 0.00 72 1013.4
20260506134556 13 332 1.6 9.7 0.00 0.00 0.00 71 1013.3
20260506133116 13 0 0.0 8.0 0.00 0.00 0.00 74 1013.3
20260506131555 13 329 1.6 6.4 0.00 0.00 0.00 70 1013.2
20260506130120 13 52 1.6 6.4 0.00 0.00 0.00 73 1013.1
20260506124559 12 188 0.0 4.8 0.00 0.00 0.00 75 1013.1
20260506123054 12 252 3.2 9.7 0.00 0.00 0.00 75 1013.1
20260506121555 12 320 0.0 11.3 0.00 0.00 0.00 75 1013.1
20260506120058 12 101 0.0 6.4 0.00 0.00 0.00 75 1013.1
20260506114604 12 335 3.2 8.0 0.00 0.00 0.00 76 1013.1
20260506113055 12 40 0.0 6.4 0.00 0.00 0.00 74 1013.0
20260506111553 12 96 0.0 9.7 0.00 0.00 0.00 75 1013.0
20260506110054 12 15 1.6 8.0 0.00 0.00 0.00 76 1012.9
20260506104623 12 0 0.0 4.8 0.00 0.00 0.00 76 1013.1
20260506103055 11 0 0.0 3.2 0.00 0.00 0.00 77 1012.9
20260506101557 11 272 0.0 3.2 0.00 0.00 0.00 77 1012.9
20260506100054 11 0 1.6 6.4 0.00 0.00 0.00 78 1013.0
20260506094556 11 329 1.6 8.0 0.00 0.00 0.00 79 1012.8
20260506093059 10 0 1.6 9.7 0.00 0.00 0.00 80 1012.8
20260506091556 10 66 1.6 8.0 0.00 0.00 0.00 79 1012.7
20260506090055 10 0 1.6 9.7 0.00 0.00 0.00 80 1012.6
20260506084555 10 51 1.6 8.0 0.00 0.00 0.00 79 1012.4
20260506083055 10 106 3.2 9.7 0.00 0.00 0.00 79 1012.3
20260506081600 10 18 1.6 4.8 0.00 0.00 0.00 80 1012.2
20260506080111 10 0 1.6 8.0 0.00 0.00 0.00 80 1012.1
20260506073057 9 349 3.2 9.7 0.00 0.00 0.00 81 1012.2
20260506071621 9 345 0.0 11.3 0.00 0.00 0.00 82 1012.2
20260506061556 9 350 0.0 8.0 0.00 0.00 0.00 81 1011.9
20260506044612 8 329 1.6 8.0 0.00 0.00 0.00 83 1011.6
20260506043059 8 332 1.6 8.0 0.00 0.00 0.00 83 1011.7
20260506041558 8 360 0.0 8.0 0.00 0.00 0.00 83 1011.7
20260506040059 8 286 0.0 4.8 0.00 0.00 0.00 83 1011.8
20260506034601 8 0 0.0 3.2 0.00 0.00 0.00 83 1011.9
20260506033055 9 129 0.0 3.2 0.00 0.00 0.00 83 1012.1
20260506031559 9 0 0.0 4.8 0.00 0.00 0.00 83 1012.2
20260506030056 9 0 0.0 3.2 0.00 0.00 0.00 82 1012.2
20260506024555 9 309 0.0 9.7 0.00 0.00 0.00 82 1012.3
20260506023055 10 139 1.6 9.7 0.00 0.00 0.00 81 1012.2
20260506021558 10 136 1.6 6.4 0.00 0.00 0.00 81 1012.4
20260506020055 10 117 1.6 8.0 0.00 0.00 0.00 79 1012.4
20260506014556 10 319 1.6 9.7 0.00 0.00 0.00 79 1012.3
20260506013055 10 260 3.2 11.3 0.00 0.00 0.00 77 1012.4
20260506011556 10 253 3.2 9.7 0.00 0.00 0.00 78 1012.5
20260506010058 10 322 3.2 8.0 0.00 0.00 0.00 78 1012.5
20260506004554 10 248 3.2 8.0 0.00 0.00 0.00 80 1012.7
20260506003112 10 238 3.2 12.9 0.00 0.00 0.00 80 1012.5
20260506001611 10 33 3.2 11.3 0.00 0.00 0.00 81 1012.7
20260506000058 10 304 1.6 9.7 0.00 0.00 0.00 82 1012.7
20260505234611 10 248 4.8 9.7 0.00 0.00 0.00 81 1012.8